Time,TemperatureF,DewpointF,PressureIn,WindDirection,WindDirectionDegrees,WindSpeedMPH,WindSpeedGustMPH,Humidity,HourlyPrecipIn,Conditions,Clouds,dailyrainin,SoftwareType,DateUTC
2013-07-23 00:01:00,69.4,67.3,29.90,WSW,241,0.0,0.0,93,0.00,,,0.00,Wunderground v.1.15,2013-07-23 04:01:00,
2013-07-23 00:02:00,69.4,67.0,29.90,WSW,241,0.0,0.0,92,0.00,,,0.00,Wunderground v.1.15,2013-07-23 04:02:00,
2013-07-23 00:03:00,69.4,67.0,29.90,WSW,241,0.0,0.0,92,0.00,,,0.00,Wunderground v.1.15,2013-07-23 04:03:00,
2013-07-23 00:06:00,69.4,67.0,29.90,WSW,241,0.0,0.0,92,0.00,,,0.00,Wunderground v.1.15,2013-07-23 04:06:00,
2013-07-23 00:09:00,69.4,67.0,29.90,WSW,241,0.0,0.0,92,0.00,,,0.00,Wunderground v.1.15,2013-07-23 04:09:00,
2013-07-23 00:15:00,69.4,67.0,29.90,WSW,241,0.0,1.0,92,0.00,,,0.00,Wunderground v.1.15,2013-07-23 04:15:00,
2013-07-23 00:20:00,69.4,67.0,29.90,WSW,241,0.0,0.0,92,0.00,,,0.00,Wunderground v.1.15,2013-07-23 04:20:00,
2013-07-23 00:26:00,69.4,67.0,29.90,WSW,241,0.0,0.0,92,0.00,,,0.00,Wunderground v.1.15,2013-07-23 04:26:00,
2013-07-23 00:31:00,69.3,66.9,29.90,WSW,241,0.0,0.0,92,0.00,,,0.00,Wunderground v.1.15,2013-07-23 04:31:00,
2013-07-23 00:37:00,69.3,66.9,29.90,WSW,241,0.0,0.0,92,0.00,,,0.00,Wunderground v.1.15,2013-07-23 04:37:00,
2013-07-23 00:42:00,69.4,67.0,29.90,WSW,241,0.0,0.0,92,0.00,,,0.00,Wunderground v.1.15,2013-07-23 04:42:00,
2013-07-23 00:48:00,69.3,66.9,29.90,WSW,241,0.0,0.0,92,0.00,,,0.00,Wunderground v.1.15,2013-07-23 04:48:00,
2013-07-23 00:53:00,69.1,66.7,29.90,WSW,241,0.0,0.0,92,0.00,,,0.00,Wunderground v.1.15,2013-07-23 04:53:00,
2013-07-23 00:59:00,68.8,66.4,29.90,WSW,241,0.0,0.0,92,0.00,,,0.00,Wunderground v.1.15,2013-07-23 04:59:00,
2013-07-23 01:05:00,68.6,66.5,29.90,WSW,241,0.0,0.0,93,0.00,,,0.00,Wunderground v.1.15,2013-07-23 05:05:00,
2013-07-23 01:11:00,68.4,66.3,29.90,WSW,241,0.0,0.0,93,0.00,,,0.00,Wunderground v.1.15,2013-07-23 05:11:00,
2013-07-23 01:17:00,68.4,66.6,29.90,WSW,241,0.0,0.0,94,0.00,,,0.00,Wunderground v.1.15,2013-07-23 05:17:00,
2013-07-23 01:22:00,68.4,66.6,29.90,WSW,241,0.0,0.0,94,0.00,,,0.00,Wunderground v.1.15,2013-07-23 05:22:00,
2013-07-23 01:28:00,68.4,66.6,29.90,WSW,241,0.0,0.0,94,0.00,,,0.00,Wunderground v.1.15,2013-07-23 05:28:00,
2013-07-23 01:33:00,68.8,66.7,29.91,WSW,241,0.0,0.0,93,0.00,,,0.00,Wunderground v.1.15,2013-07-23 05:33:00,
2013-07-23 01:39:00,68.9,66.5,29.91,WSW,241,0.0,0.0,92,0.00,,,0.00,Wunderground v.1.15,2013-07-23 05:39:00,
2013-07-23 01:44:00,69.1,66.7,29.91,WSW,241,0.0,0.0,92,0.00,,,0.00,Wunderground v.1.15,2013-07-23 05:44:00,
2013-07-23 01:50:00,69.1,66.7,29.90,WSW,241,0.0,0.0,92,0.00,,,0.00,Wunderground v.1.15,2013-07-23 05:50:00,
2013-07-23 01:55:00,69.3,66.9,29.90,WSW,241,0.0,0.0,92,0.00,,,0.00,Wunderground v.1.15,2013-07-23 05:55:00,
2013-07-23 02:00:00,69.3,66.6,29.90,WSW,241,0.0,0.0,91,0.00,,,0.00,Wunderground v.1.15,2013-07-23 06:00:00,
2013-07-23 02:05:00,69.4,66.7,29.90,WSW,241,0.0,0.0,91,0.00,,,0.00,Wunderground v.1.15,2013-07-23 06:05:00,
2013-07-23 02:10:00,69.3,66.6,29.90,WSW,241,0.0,0.0,91,0.00,,,0.00,Wunderground v.1.15,2013-07-23 06:10:00,
2013-07-23 02:15:00,69.3,66.6,29.90,WSW,241,0.0,4.0,91,0.00,,,0.00,Wunderground v.1.15,2013-07-23 06:15:00,
2013-07-23 02:20:00,69.3,66.6,29.90,WSW,241,0.0,1.0,91,0.00,,,0.00,Wunderground v.1.15,2013-07-23 06:20:00,
2013-07-23 02:25:00,69.1,66.7,29.90,WSW,241,0.0,1.0,92,0.00,,,0.00,Wunderground v.1.15,2013-07-23 06:25:00,
2013-07-23 02:30:00,68.9,66.5,29.90,WSW,241,0.0,0.0,92,0.00,,,0.00,Wunderground v.1.15,2013-07-23 06:30:00,
2013-07-23 02:35:00,68.8,66.4,29.90,WSW,241,0.0,0.0,92,0.00,,,0.00,Wunderground v.1.15,2013-07-23 06:35:00,
2013-07-23 02:40:00,68.8,66.7,29.90,WSW,241,0.0,0.0,93,0.00,,,0.00,Wunderground v.1.15,2013-07-23 06:40:00,
2013-07-23 02:45:00,68.9,66.5,29.90,WSW,241,0.0,1.0,92,0.00,,,0.00,Wunderground v.1.15,2013-07-23 06:45:00,
2013-07-23 02:50:00,69.1,66.7,29.90,WSW,241,0.0,0.0,92,0.00,,,0.00,Wunderground v.1.15,2013-07-23 06:50:00,
2013-07-23 02:55:00,69.3,66.6,29.90,WSW,241,0.0,1.0,91,0.00,,,0.00,Wunderground v.1.15,2013-07-23 06:55:00,
2013-07-23 03:00:00,69.3,66.6,29.90,WSW,241,0.0,0.0,91,0.00,,,0.00,Wunderground v.1.15,2013-07-23 07:00:00,
2013-07-23 03:05:00,69.4,66.3,29.90,WSW,241,0.0,0.0,90,0.00,,,0.00,Wunderground v.1.15,2013-07-23 07:05:00,
2013-07-23 03:10:00,69.4,66.7,29.90,WSW,241,0.0,0.0,91,0.00,,,0.00,Wunderground v.1.15,2013-07-23 07:10:00,
2013-07-23 03:15:00,69.6,66.5,29.90,WSW,241,0.0,1.0,90,0.00,,,0.00,Wunderground v.1.15,2013-07-23 07:15:00,
2013-07-23 03:20:00,69.6,66.5,29.90,WSW,241,0.0,0.0,90,0.00,,,0.00,Wunderground v.1.15,2013-07-23 07:20:00,
2013-07-23 03:25:00,69.6,66.5,29.90,WSW,241,0.0,2.0,90,0.00,,,0.00,Wunderground v.1.15,2013-07-23 07:25:00,
2013-07-23 03:30:00,69.8,66.7,29.90,WSW,241,0.0,0.0,90,0.00,,,0.00,Wunderground v.1.15,2013-07-23 07:30:00,
2013-07-23 03:35:00,69.8,67.1,29.90,WSW,241,0.0,0.0,91,0.00,,,0.00,Wunderground v.1.15,2013-07-23 07:35:00,
2013-07-23 03:41:00,69.8,66.7,29.90,WSW,241,0.0,1.0,90,0.00,,,0.00,Wunderground v.1.15,2013-07-23 07:41:00,
2013-07-23 03:46:00,69.6,66.9,29.90,WSW,241,0.0,1.0,91,0.00,,,0.00,Wunderground v.1.15,2013-07-23 07:46:00,
2013-07-23 03:51:00,69.6,66.9,29.90,WSW,241,0.0,0.0,91,0.00,,,0.00,Wunderground v.1.15,2013-07-23 07:51:00,
2013-07-23 03:56:00,69.6,66.9,29.90,WSW,241,0.0,0.0,91,0.00,,,0.00,Wunderground v.1.15,2013-07-23 07:56:00,
2013-07-23 04:01:00,69.4,66.7,29.90,WSW,241,0.0,0.0,91,0.00,,,0.00,Wunderground v.1.15,2013-07-23 08:01:00,
2013-07-23 04:06:00,69.4,67.0,29.90,WSW,241,0.0,1.0,92,0.00,,,0.00,Wunderground v.1.15,2013-07-23 08:06:00,
2013-07-23 04:11:00,69.6,67.2,29.90,WSW,241,0.0,0.0,92,0.00,,,0.00,Wunderground v.1.15,2013-07-23 08:11:00,
2013-07-23 04:16:00,69.6,67.2,29.90,WSW,241,0.0,1.0,92,0.00,,,0.00,Wunderground v.1.15,2013-07-23 08:16:00,
2013-07-23 04:21:00,69.6,67.2,29.90,WSW,241,0.0,0.0,92,0.00,,,0.00,Wunderground v.1.15,2013-07-23 08:21:00,
2013-07-23 04:26:00,69.6,67.2,29.90,WSW,241,0.0,0.0,92,0.00,,,0.00,Wunderground v.1.15,2013-07-23 08:26:00,
2013-07-23 04:31:00,69.4,67.0,29.90,WSW,241,0.0,0.0,92,0.00,,,0.00,Wunderground v.1.15,2013-07-23 08:31:00,
2013-07-23 04:36:00,69.1,66.7,29.90,WSW,241,0.0,0.0,92,0.00,,,0.00,Wunderground v.1.15,2013-07-23 08:36:00,
2013-07-23 04:41:00,68.9,66.8,29.90,WSW,241,0.0,0.0,93,0.00,,,0.00,Wunderground v.1.15,2013-07-23 08:41:00,
2013-07-23 04:46:00,69.1,67.3,29.90,WSW,241,0.0,0.0,94,0.00,,,0.00,Wunderground v.1.15,2013-07-23 08:46:00,
2013-07-23 04:51:00,69.1,67.3,29.90,WSW,241,0.0,0.0,94,0.00,,,0.00,Wunderground v.1.15,2013-07-23 08:51:00,
2013-07-23 04:56:00,69.1,67.3,29.90,WSW,241,0.0,0.0,94,0.00,,,0.00,Wunderground v.1.15,2013-07-23 08:56:00,
2013-07-23 05:01:00,69.3,67.5,29.90,WSW,241,0.0,0.0,94,0.00,,,0.00,Wunderground v.1.15,2013-07-23 09:01:00,
2013-07-23 05:06:00,69.4,67.6,29.91,WSW,241,0.0,0.0,94,0.00,,,0.00,Wunderground v.1.15,2013-07-23 09:06:00,
2013-07-23 05:11:00,69.6,67.8,29.91,WSW,241,0.0,0.0,94,0.00,,,0.00,Wunderground v.1.15,2013-07-23 09:11:00,
2013-07-23 05:16:00,69.6,67.5,29.90,WSW,241,0.0,0.0,93,0.00,,,0.00,Wunderground v.1.15,2013-07-23 09:16:00,
2013-07-23 05:21:00,69.8,67.7,29.90,WSW,241,0.0,0.0,93,0.00,,,0.00,Wunderground v.1.15,2013-07-23 09:21:00,
2013-07-23 05:26:00,69.8,67.7,29.90,WSW,241,0.0,0.0,93,0.00,,,0.00,Wunderground v.1.15,2013-07-23 09:26:00,
2013-07-23 05:31:00,69.6,67.5,29.89,WSW,241,0.0,0.0,93,0.00,,,0.00,Wunderground v.1.15,2013-07-23 09:31:00,
2013-07-23 05:36:00,69.6,67.8,29.89,WSW,241,0.0,1.0,94,0.00,,,0.00,Wunderground v.1.15,2013-07-23 09:36:00,
2013-07-23 05:41:00,69.6,67.8,29.89,WSW,241,0.0,0.0,94,0.00,,,0.00,Wunderground v.1.15,2013-07-23 09:41:00,
2013-07-23 05:46:00,69.6,67.8,29.90,WSW,241,0.0,0.0,94,0.00,,,0.00,Wunderground v.1.15,2013-07-23 09:46:00,
2013-07-23 05:51:00,69.4,67.6,29.90,WSW,241,0.0,0.0,94,0.00,,,0.00,Wunderground v.1.15,2013-07-23 09:51:00,
2013-07-23 05:56:00,69.3,67.5,29.90,WSW,241,0.0,0.0,94,0.00,,,0.00,Wunderground v.1.15,2013-07-23 09:56:00,
2013-07-23 06:01:00,69.1,67.3,29.91,WSW,241,0.0,0.0,94,0.00,,,0.00,Wunderground v.1.15,2013-07-23 10:01:00,
2013-07-23 06:06:00,68.9,67.1,29.91,WSW,241,1.0,2.0,94,0.00,,,0.00,Wunderground v.1.15,2013-07-23 10:06:00,
2013-07-23 06:11:00,68.9,67.4,29.91,WSW,241,0.0,0.0,95,0.00,,,0.00,Wunderground v.1.15,2013-07-23 10:11:00,
2013-07-23 06:16:00,68.9,67.4,29.90,WSW,241,0.0,1.0,95,0.00,,,0.00,Wunderground v.1.15,2013-07-23 10:16:00,
2013-07-23 06:21:00,68.9,67.4,29.90,WSW,241,0.0,0.0,95,0.00,,,0.00,Wunderground v.1.15,2013-07-23 10:21:00,
2013-07-23 06:27:00,68.9,67.4,29.90,WSW,241,0.0,0.0,95,0.00,,,0.00,Wunderground v.1.15,2013-07-23 10:27:00,
2013-07-23 06:32:00,68.8,67.6,29.90,WSW,241,0.0,0.0,96,0.00,,,0.00,Wunderground v.1.15,2013-07-23 10:32:00,
2013-07-23 06:37:00,68.8,67.6,29.90,WSW,241,0.0,0.0,96,0.00,,,0.00,Wunderground v.1.15,2013-07-23 10:37:00,
2013-07-23 06:42:00,68.8,67.6,29.90,WSW,241,0.0,0.0,96,0.00,,,0.00,Wunderground v.1.15,2013-07-23 10:42:00,
2013-07-23 06:47:00,68.8,67.6,29.90,WSW,241,0.0,0.0,96,0.00,,,0.00,Wunderground v.1.15,2013-07-23 10:47:00,
2013-07-23 06:52:00,68.8,67.6,29.90,SW,235,0.0,0.0,96,0.00,,,0.00,Wunderground v.1.15,2013-07-23 10:52:00,
2013-07-23 06:57:00,68.9,68.0,29.90,SW,235,0.0,0.0,97,0.00,,,0.00,Wunderground v.1.15,2013-07-23 10:57:00,
2013-07-23 07:02:00,69.1,68.2,29.90,SW,235,0.0,0.0,97,0.00,,,0.00,Wunderground v.1.15,2013-07-23 11:02:00,
2013-07-23 07:07:00,69.1,68.2,29.90,SW,235,0.0,0.0,97,0.00,,,0.00,Wunderground v.1.15,2013-07-23 11:07:00,
2013-07-23 07:12:00,69.3,68.4,29.90,SW,235,0.0,0.0,97,0.00,,,0.00,Wunderground v.1.15,2013-07-23 11:12:00,
2013-07-23 07:17:00,69.4,68.5,29.90,SW,235,0.0,0.0,97,0.00,,,0.00,Wunderground v.1.15,2013-07-23 11:17:00,
2013-07-23 07:22:00,69.4,68.5,29.90,SW,235,0.0,0.0,97,0.00,,,0.00,Wunderground v.1.15,2013-07-23 11:22:00,
2013-07-23 07:27:00,69.8,68.9,29.90,SW,235,0.0,0.0,97,0.00,,,0.00,Wunderground v.1.15,2013-07-23 11:27:00,
2013-07-23 07:32:00,69.9,69.0,29.91,SW,235,0.0,0.0,97,0.00,,,0.00,Wunderground v.1.15,2013-07-23 11:32:00,
2013-07-23 07:37:00,70.1,69.2,29.91,SW,235,0.0,0.0,97,0.00,,,0.00,Wunderground v.1.15,2013-07-23 11:37:00,
2013-07-23 07:42:00,70.1,69.2,29.91,SW,235,0.0,0.0,97,0.00,,,0.00,Wunderground v.1.15,2013-07-23 11:42:00,
2013-07-23 07:47:00,70.1,69.2,29.91,SW,235,0.0,0.0,97,0.00,,,0.00,Wunderground v.1.15,2013-07-23 11:47:00,
2013-07-23 07:52:00,70.3,69.4,29.91,SW,235,0.0,0.0,97,0.00,,,0.00,Wunderground v.1.15,2013-07-23 11:52:00,
2013-07-23 07:57:00,70.3,69.4,29.91,SW,235,0.0,0.0,97,0.00,,,0.00,Wunderground v.1.15,2013-07-23 11:57:00,
2013-07-23 08:02:00,70.4,69.2,29.90,SW,235,0.0,0.0,96,0.00,,,0.00,Wunderground v.1.15,2013-07-23 12:02:00,
2013-07-23 08:07:00,70.4,69.2,29.90,SW,235,0.0,1.0,96,0.00,,,0.00,Wunderground v.1.15,2013-07-23 12:07:00,
2013-07-23 08:13:00,70.6,69.4,29.90,SW,235,0.0,0.0,96,0.00,,,0.00,Wunderground v.1.15,2013-07-23 12:13:00,
2013-07-23 08:18:00,70.9,69.7,29.90,SW,235,0.0,0.0,96,0.00,,,0.00,Wunderground v.1.15,2013-07-23 12:18:00,
2013-07-23 08:23:00,71.3,70.1,29.90,SW,235,0.0,0.0,96,0.00,,,0.00,Wunderground v.1.15,2013-07-23 12:23:00,
2013-07-23 08:28:00,71.5,70.3,29.90,SW,235,0.0,0.0,96,0.00,,,0.00,Wunderground v.1.15,2013-07-23 12:28:00,
2013-07-23 08:33:00,71.6,70.1,29.90,SW,235,0.0,0.0,95,0.00,,,0.00,Wunderground v.1.15,2013-07-23 12:33:00,
2013-07-23 08:38:00,72.0,70.5,29.90,SW,235,0.0,0.0,95,0.00,,,0.00,Wunderground v.1.15,2013-07-23 12:38:00,
2013-07-23 08:43:00,72.7,71.2,29.90,SW,235,0.0,0.0,95,0.00,,,0.00,Wunderground v.1.15,2013-07-23 12:43:00,
2013-07-23 08:48:00,73.3,71.2,29.90,SW,235,0.0,1.0,93,0.00,,,0.00,Wunderground v.1.15,2013-07-23 12:48:00,
2013-07-23 08:53:00,73.5,70.4,29.90,SSW,205,0.0,1.0,90,0.00,,,0.00,Wunderground v.1.15,2013-07-23 12:53:00,
2013-07-23 08:58:00,73.3,69.9,29.90,South,186,0.0,3.0,89,0.00,,,0.00,Wunderground v.1.15,2013-07-23 12:58:00,
2013-07-23 09:03:00,73.5,70.4,29.90,South,186,0.0,0.0,90,0.00,,,0.00,Wunderground v.1.15,2013-07-23 13:03:00,
2013-07-23 09:08:00,73.7,69.9,29.90,South,180,0.0,4.0,88,0.00,,,0.00,Wunderground v.1.15,2013-07-23 13:08:00,
2013-07-23 09:13:00,74.0,70.2,29.90,South,180,0.0,0.0,88,0.00,,,0.00,Wunderground v.1.15,2013-07-23 13:13:00,
2013-07-23 09:18:00,74.0,70.2,29.90,South,180,0.0,1.0,88,0.00,,,0.00,Wunderground v.1.15,2013-07-23 13:18:00,
2013-07-23 09:23:00,74.2,69.7,29.90,South,180,0.0,0.0,86,0.00,,,0.00,Wunderground v.1.15,2013-07-23 13:23:00,
2013-07-23 09:28:00,74.6,69.8,29.90,South,180,0.0,1.0,85,0.00,,,0.00,Wunderground v.1.15,2013-07-23 13:28:00,
2013-07-23 09:33:00,74.6,70.1,29.90,South,180,0.0,0.0,86,0.00,,,0.00,Wunderground v.1.15,2013-07-23 13:33:00,
2013-07-23 09:38:00,74.7,69.9,29.90,South,180,0.0,0.0,85,0.00,,,0.00,Wunderground v.1.15,2013-07-23 13:38:00,
2013-07-23 09:43:00,74.7,70.6,29.90,South,180,3.0,3.0,87,0.00,,,0.00,Wunderground v.1.15,2013-07-23 13:43:00,
2013-07-23 09:48:00,74.4,70.6,29.90,South,180,0.0,3.0,88,0.00,,,0.00,Wunderground v.1.15,2013-07-23 13:48:00,
2013-07-23 09:54:00,74.2,70.7,29.90,SSE,165,0.0,5.0,89,0.00,,,0.00,Wunderground v.1.15,2013-07-23 13:54:00,
2013-07-23 09:59:00,74.2,70.4,29.90,SSE,165,0.0,5.0,88,0.00,,,0.00,Wunderground v.1.15,2013-07-23 13:59:00,
2013-07-23 10:04:00,74.9,71.1,29.90,SSE,165,0.0,1.0,88,0.00,,,0.00,Wunderground v.1.15,2013-07-23 14:04:00,
2013-07-23 10:09:00,75.8,71.7,29.90,SSE,165,0.0,1.0,87,0.00,,,0.00,Wunderground v.1.15,2013-07-23 14:09:00,
2013-07-23 10:14:00,76.1,70.9,29.90,SSE,165,0.0,0.0,84,0.00,,,0.00,Wunderground v.1.15,2013-07-23 14:14:00,
2013-07-23 10:19:00,76.5,70.2,29.90,SE,137,0.0,4.0,81,0.00,,,0.00,Wunderground v.1.15,2013-07-23 14:19:00,
2013-07-23 10:24:00,76.3,70.8,29.90,SE,137,0.0,0.0,83,0.00,,,0.00,Wunderground v.1.15,2013-07-23 14:24:00,
2013-07-23 10:29:00,76.5,70.6,29.90,SE,137,0.0,2.0,82,0.00,,,0.00,Wunderground v.1.15,2013-07-23 14:29:00,
2013-07-23 10:34:00,76.7,70.4,29.91,SE,137,0.0,0.0,81,0.00,,,0.00,Wunderground v.1.15,2013-07-23 14:34:00,
2013-07-23 10:39:00,76.7,70.1,29.91,SE,137,0.0,0.0,80,0.00,,,0.00,Wunderground v.1.15,2013-07-23 14:39:00,
2013-07-23 10:44:00,76.5,70.2,29.91,SE,137,0.0,0.0,81,0.00,,,0.00,Wunderground v.1.15,2013-07-23 14:44:00,
2013-07-23 10:49:00,76.3,70.0,29.91,SE,137,0.0,0.0,81,0.00,,,0.00,Wunderground v.1.15,2013-07-23 14:49:00,
2013-07-23 10:54:00,76.1,70.6,29.91,SE,137,0.0,0.0,83,0.00,,,0.00,Wunderground v.1.15,2013-07-23 14:54:00,
2013-07-23 10:59:00,76.1,70.6,29.91,SE,137,0.0,0.0,83,0.00,,,0.00,Wunderground v.1.15,2013-07-23 14:59:00,
2013-07-23 11:04:00,76.3,71.1,29.91,SE,137,0.0,0.0,84,0.00,,,0.00,Wunderground v.1.15,2013-07-23 15:04:00,
2013-07-23 11:09:00,76.1,70.6,29.91,SE,137,0.0,1.0,83,0.00,,,0.00,Wunderground v.1.15,2013-07-23 15:09:00,
2013-07-23 11:14:00,76.3,71.1,29.91,SE,137,0.0,0.0,84,0.00,,,0.00,Wunderground v.1.15,2013-07-23 15:14:00,
2013-07-23 11:19:00,76.5,71.3,29.91,SE,137,0.0,1.0,84,0.00,,,0.00,Wunderground v.1.15,2013-07-23 15:19:00,
2013-07-23 11:24:00,76.7,70.8,29.91,SE,136,0.0,1.0,82,0.00,,,0.00,Wunderground v.1.15,2013-07-23 15:24:00,
2013-07-23 11:29:00,76.7,70.4,29.91,ESE,121,2.0,6.0,81,0.00,,,0.00,Wunderground v.1.15,2013-07-23 15:29:00,
2013-07-23 11:34:00,76.5,70.9,29.91,ESE,121,0.0,1.0,83,0.00,,,0.00,Wunderground v.1.15,2013-07-23 15:34:00,
2013-07-23 11:39:00,76.7,71.5,29.91,ESE,121,0.0,1.0,84,0.00,,,0.00,Wunderground v.1.15,2013-07-23 15:39:00,
2013-07-23 11:45:00,76.8,71.6,29.91,ESE,121,0.0,1.0,84,0.00,,,0.00,Wunderground v.1.15,2013-07-23 15:45:00,
2013-07-23 11:50:00,76.7,71.1,29.91,ESE,121,0.0,0.0,83,0.00,,,0.00,Wunderground v.1.15,2013-07-23 15:50:00,
2013-07-23 11:55:00,76.5,71.3,29.91,ESE,121,0.0,0.0,84,0.00,,,0.00,Wunderground v.1.15,2013-07-23 15:55:00,
2013-07-23 12:00:00,76.5,70.9,29.91,ESE,121,0.0,0.0,83,0.00,,,0.00,Wunderground v.1.15,2013-07-23 16:00:00,
2013-07-23 12:05:00,76.3,71.1,29.90,ESE,121,0.0,2.0,84,0.00,,,0.00,Wunderground v.1.15,2013-07-23 16:05:00,
2013-07-23 12:10:00,75.4,71.6,29.90,South,191,0.0,1.0,88,1.37,,,0.06,Wunderground v.1.15,2013-07-23 16:10:00,
2013-07-23 12:15:00,74.9,72.1,29.90,South,191,0.0,1.0,91,0.11,,,0.06,Wunderground v.1.15,2013-07-23 16:15:00,
2013-07-23 12:20:00,74.7,72.2,29.90,South,191,0.0,0.0,92,0.06,,,0.06,Wunderground v.1.15,2013-07-23 16:20:00,
2013-07-23 12:25:00,74.9,73.1,29.90,South,191,0.0,0.0,94,0.04,,,0.06,Wunderground v.1.15,2013-07-23 16:25:00,
2013-07-23 12:30:00,75.3,73.1,29.90,South,191,0.0,0.0,93,0.00,,,0.06,Wunderground v.1.15,2013-07-23 16:30:00,
2013-07-23 12:35:00,75.6,73.4,29.90,South,191,0.0,1.0,93,0.00,,,0.06,Wunderground v.1.15,2013-07-23 16:35:00,
2013-07-23 12:40:00,76.0,73.5,29.90,SSE,165,0.0,0.0,92,0.00,,,0.06,Wunderground v.1.15,2013-07-23 16:40:00,
2013-07-23 12:45:00,75.8,73.3,29.90,SSE,165,0.0,0.0,92,0.00,,,0.06,Wunderground v.1.15,2013-07-23 16:45:00,
2013-07-23 12:50:00,75.4,72.9,29.88,SSE,158,0.0,0.0,92,0.00,,,0.06,Wunderground v.1.15,2013-07-23 16:50:00,
2013-07-23 12:55:00,75.1,72.3,29.88,ESE,117,0.0,2.0,91,0.00,,,0.06,Wunderground v.1.15,2013-07-23 16:55:00,
2013-07-23 13:00:00,74.6,71.8,29.88,ENE,73,0.0,1.0,91,0.00,,,0.06,Wunderground v.1.15,2013-07-23 17:00:00,
2013-07-23 13:05:00,74.6,72.4,29.88,ENE,73,0.0,1.0,93,0.00,,,0.06,Wunderground v.1.15,2013-07-23 17:05:00,
2013-07-23 13:11:00,74.4,72.2,29.88,ENE,73,0.0,0.0,93,0.00,,,0.06,Wunderground v.1.15,2013-07-23 17:11:00,
2013-07-23 13:16:00,74.0,71.5,29.88,ENE,73,0.0,1.0,92,0.00,,,0.06,Wunderground v.1.15,2013-07-23 17:16:00,
2013-07-23 13:21:00,73.9,71.7,29.89,ENE,73,2.0,4.0,93,0.00,,,0.07,Wunderground v.1.15,2013-07-23 17:21:00,
2013-07-23 13:26:00,73.5,71.7,29.89,NW,309,4.0,7.0,94,0.79,,,0.10,Wunderground v.1.15,2013-07-23 17:26:00,
2013-07-23 13:31:00,72.5,70.4,29.89,West,276,0.0,6.0,93,5.49,,,0.41,Wunderground v.1.15,2013-07-23 17:31:00,
2013-07-23 13:36:00,71.6,69.8,29.89,WSW,250,0.0,9.0,94,1.68,,,0.60,Wunderground v.1.15,2013-07-23 17:36:00,
2013-07-23 13:42:00,71.3,69.8,29.89,WSW,250,0.0,1.0,95,0.84,,,0.69,Wunderground v.1.15,2013-07-23 17:42:00,
2013-07-23 13:47:00,71.3,70.1,29.91,WSW,250,0.0,1.0,96,0.55,,,0.74,Wunderground v.1.15,2013-07-23 17:47:00,
2013-07-23 13:52:00,71.5,70.6,29.91,WSW,250,0.0,0.0,97,0.13,,,0.76,Wunderground v.1.15,2013-07-23 17:52:00,
2013-07-23 13:57:00,71.5,70.6,29.91,WSW,250,0.0,0.0,97,0.11,,,0.76,Wunderground v.1.15,2013-07-23 17:57:00,
2013-07-23 14:03:00,71.6,70.7,29.91,WSW,250,0.0,0.0,97,0.05,,,0.76,Wunderground v.1.15,2013-07-23 18:03:00,
2013-07-23 14:08:00,72.0,71.4,29.91,WSW,250,0.0,0.0,98,0.04,,,0.76,Wunderground v.1.15,2013-07-23 18:08:00,
2013-07-23 14:13:00,72.1,71.5,29.91,WSW,250,0.0,0.0,98,0.00,,,0.76,Wunderground v.1.15,2013-07-23 18:13:00,
2013-07-23 14:18:00,72.1,71.5,29.90,WSW,250,0.0,0.0,98,0.00,,,0.76,Wunderground v.1.15,2013-07-23 18:18:00,
2013-07-23 14:23:00,72.5,71.9,29.90,WSW,250,0.0,1.0,98,0.00,,,0.76,Wunderground v.1.15,2013-07-23 18:23:00,
2013-07-23 14:29:00,72.7,72.1,29.90,WSW,250,0.0,1.0,98,0.00,,,0.76,Wunderground v.1.15,2013-07-23 18:29:00,
2013-07-23 14:34:00,73.7,73.1,29.89,SE,131,1.0,6.0,98,0.00,,,0.76,Wunderground v.1.15,2013-07-23 18:34:00,
2013-07-23 14:39:00,73.7,72.8,29.89,East,94,0.0,6.0,97,0.00,,,0.76,Wunderground v.1.15,2013-07-23 18:39:00,
2013-07-23 14:44:00,73.5,72.6,29.89,East,94,3.0,3.0,97,0.00,,,0.76,Wunderground v.1.15,2013-07-23 18:44:00,
2013-07-23 14:49:00,73.3,72.4,29.87,East,94,3.0,3.0,97,0.00,,,0.76,Wunderground v.1.15,2013-07-23 18:49:00,
2013-07-23 14:54:00,73.3,72.4,29.87,East,94,0.0,3.0,97,0.00,,,0.76,Wunderground v.1.15,2013-07-23 18:54:00,
2013-07-23 14:59:00,73.5,72.6,29.87,East,82,3.0,5.0,97,0.00,,,0.76,Wunderground v.1.15,2013-07-23 18:59:00,
2013-07-23 15:04:00,73.9,72.7,29.87,ENE,77,4.0,5.0,96,0.00,,,0.76,Wunderground v.1.15,2013-07-23 19:04:00,
2013-07-23 15:09:00,73.9,72.7,29.87,ENE,77,2.0,5.0,96,0.00,,,0.76,Wunderground v.1.15,2013-07-23 19:09:00,
2013-07-23 15:14:00,73.9,72.7,29.87,ENE,73,0.0,4.0,96,0.00,,,0.76,Wunderground v.1.15,2013-07-23 19:14:00,
2013-07-23 15:20:00,74.2,73.0,29.86,ENE,75,0.0,4.0,96,0.00,,,0.76,Wunderground v.1.15,2013-07-23 19:20:00,
2013-07-23 15:25:00,74.0,72.8,29.86,East,97,0.0,9.0,96,0.00,,,0.76,Wunderground v.1.15,2013-07-23 19:25:00,
2013-07-23 15:30:00,74.0,72.8,29.86,East,98,3.0,7.0,96,0.00,,,0.76,Wunderground v.1.15,2013-07-23 19:30:00,
2013-07-23 15:35:00,74.2,73.0,29.86,ENE,70,0.0,9.0,96,0.00,,,0.76,Wunderground v.1.15,2013-07-23 19:35:00,
2013-07-23 15:40:00,74.6,73.4,29.86,ENE,70,0.0,1.0,96,0.00,,,0.76,Wunderground v.1.15,2013-07-23 19:40:00,
2013-07-23 15:46:00,74.7,73.5,29.86,ENE,70,0.0,1.0,96,0.00,,,0.76,Wunderground v.1.15,2013-07-23 19:46:00,
2013-07-23 15:51:00,74.6,73.4,29.85,ENE,70,1.0,1.0,96,0.00,,,0.76,Wunderground v.1.15,2013-07-23 19:51:00,
2013-07-23 15:56:00,74.2,72.7,29.85,ENE,58,4.0,5.0,95,0.00,,,0.76,Wunderground v.1.15,2013-07-23 19:56:00,
2013-07-23 16:01:00,74.2,72.4,29.85,ENE,69,2.0,3.0,94,0.00,,,0.76,Wunderground v.1.15,2013-07-23 20:01:00,
2013-07-23 16:06:00,74.6,73.1,29.84,ENE,69,0.0,3.0,95,0.00,,,0.76,Wunderground v.1.15,2013-07-23 20:06:00,
2013-07-23 16:11:00,74.9,73.1,29.84,ENE,69,0.0,0.0,94,0.00,,,0.76,Wunderground v.1.15,2013-07-23 20:11:00,
2013-07-23 16:16:00,74.7,72.5,29.83,ENE,69,0.0,1.0,93,0.00,,,0.76,Wunderground v.1.15,2013-07-23 20:16:00,
2013-07-23 16:21:00,74.9,72.4,29.83,ENE,69,0.0,1.0,92,0.00,,,0.76,Wunderground v.1.15,2013-07-23 20:21:00,
2013-07-23 16:26:00,75.1,72.9,29.83,ENE,69,0.0,1.0,93,0.00,,,0.76,Wunderground v.1.15,2013-07-23 20:26:00,
2013-07-23 16:31:00,75.3,73.1,29.83,ENE,69,0.0,1.0,93,0.00,,,0.76,Wunderground v.1.15,2013-07-23 20:31:00,
2013-07-23 16:37:00,75.3,72.8,29.83,ENE,69,0.0,4.0,92,0.00,,,0.76,Wunderground v.1.15,2013-07-23 20:37:00,
2013-07-23 16:42:00,75.4,72.9,29.83,NE,40,0.0,0.0,92,0.00,,,0.76,Wunderground v.1.15,2013-07-23 20:42:00,
2013-07-23 16:48:00,75.4,72.6,29.83,NE,40,0.0,0.0,91,0.00,,,0.76,Wunderground v.1.15,2013-07-23 20:48:00,
2013-07-23 16:53:00,75.6,73.1,29.83,NE,40,0.0,1.0,92,0.00,,,0.76,Wunderground v.1.15,2013-07-23 20:53:00,
2013-07-23 16:58:00,75.6,72.5,29.83,NE,41,3.0,4.0,90,0.00,,,0.76,Wunderground v.1.15,2013-07-23 20:58:00,
2013-07-23 17:04:00,75.8,72.7,29.82,NE,44,0.0,6.0,90,0.00,,,0.76,Wunderground v.1.15,2013-07-23 21:04:00,
2013-07-23 17:09:00,75.8,72.7,29.82,NE,46,0.0,6.0,90,0.00,,,0.76,Wunderground v.1.15,2013-07-23 21:09:00,
2013-07-23 17:14:00,75.6,72.1,29.82,NE,50,0.0,1.0,89,0.00,,,0.76,Wunderground v.1.15,2013-07-23 21:14:00,
2013-07-23 17:19:00,75.6,72.5,29.82,NE,50,0.0,1.0,90,0.00,,,0.76,Wunderground v.1.15,2013-07-23 21:19:00,
2013-07-23 17:25:00,75.4,72.3,29.82,NE,50,0.0,1.0,90,0.00,,,0.76,Wunderground v.1.15,2013-07-23 21:25:00,
2013-07-23 17:30:00,75.6,72.5,29.82,NE,50,0.0,0.0,90,0.00,,,0.76,Wunderground v.1.15,2013-07-23 21:30:00,
2013-07-23 17:35:00,75.8,73.0,29.82,NE,50,0.0,0.0,91,0.00,,,0.76,Wunderground v.1.15,2013-07-23 21:35:00,
2013-07-23 17:40:00,76.0,73.2,29.82,NE,50,1.0,4.0,91,0.00,,,0.76,Wunderground v.1.15,2013-07-23 21:40:00,
2013-07-23 17:46:00,76.0,72.5,29.82,NE,50,0.0,4.0,89,0.00,,,0.76,Wunderground v.1.15,2013-07-23 21:46:00,
2013-07-23 17:51:00,76.0,72.5,29.82,ENE,57,0.0,1.0,89,0.00,,,0.76,Wunderground v.1.15,2013-07-23 21:51:00,
2013-07-23 17:56:00,76.0,72.5,29.82,ENE,57,0.0,4.0,89,0.00,,,0.76,Wunderground v.1.15,2013-07-23 21:56:00,
2013-07-23 18:01:00,76.0,73.2,29.82,ENE,57,0.0,0.0,91,0.00,,,0.76,Wunderground v.1.15,2013-07-23 22:01:00,
2013-07-23 18:06:00,76.0,72.9,29.82,ENE,57,0.0,0.0,90,0.00,,,0.76,Wunderground v.1.15,2013-07-23 22:06:00,
2013-07-23 18:11:00,75.8,72.7,29.82,ENE,57,0.0,0.0,90,0.00,,,0.76,Wunderground v.1.15,2013-07-23 22:11:00,
2013-07-23 18:16:00,76.0,72.9,29.82,ENE,57,0.0,0.0,90,0.00,,,0.76,Wunderground v.1.15,2013-07-23 22:16:00,
2013-07-23 18:21:00,76.1,73.3,29.81,ENE,57,0.0,0.0,91,0.00,,,0.76,Wunderground v.1.15,2013-07-23 22:21:00,
2013-07-23 18:27:00,76.1,73.0,29.81,ENE,57,0.0,1.0,90,0.00,,,0.76,Wunderground v.1.15,2013-07-23 22:27:00,
2013-07-23 18:32:00,76.3,72.8,29.80,ENE,57,0.0,0.0,89,0.00,,,0.76,Wunderground v.1.15,2013-07-23 22:32:00,
2013-07-23 18:37:00,76.3,72.8,29.80,ENE,57,0.0,0.0,89,0.00,,,0.76,Wunderground v.1.15,2013-07-23 22:37:00,
2013-07-23 18:42:00,76.5,73.0,29.80,ENE,57,0.0,0.0,89,0.00,,,0.76,Wunderground v.1.15,2013-07-23 22:42:00,
2013-07-23 18:47:00,76.5,73.0,29.79,ENE,57,0.0,0.0,89,0.00,,,0.76,Wunderground v.1.15,2013-07-23 22:47:00,
2013-07-23 18:52:00,76.5,72.7,29.79,ENE,57,0.0,0.0,88,0.00,,,0.76,Wunderground v.1.15,2013-07-23 22:52:00,
2013-07-23 18:58:00,76.3,72.8,29.79,ENE,57,0.0,0.0,89,0.00,,,0.76,Wunderground v.1.15,2013-07-23 22:58:00,
2013-07-23 19:03:00,76.3,73.1,29.80,ENE,57,0.0,0.0,90,0.00,,,0.76,Wunderground v.1.15,2013-07-23 23:03:00,
2013-07-23 19:09:00,76.3,73.1,29.80,ENE,57,0.0,0.0,90,0.00,,,0.76,Wunderground v.1.15,2013-07-23 23:09:00,
2013-07-23 19:14:00,76.3,73.1,29.80,ENE,57,0.0,0.0,90,0.00,,,0.76,Wunderground v.1.15,2013-07-23 23:14:00,
2013-07-23 19:19:00,76.1,72.3,29.80,ENE,57,0.0,0.0,88,0.00,,,0.76,Wunderground v.1.15,2013-07-23 23:19:00,
2013-07-23 19:24:00,76.1,72.3,29.80,ENE,57,0.0,0.0,88,0.00,,,0.76,Wunderground v.1.15,2013-07-23 23:24:00,
2013-07-23 19:29:00,76.0,72.2,29.80,ENE,57,0.0,1.0,88,0.00,,,0.76,Wunderground v.1.15,2013-07-23 23:29:00,
2013-07-23 19:34:00,75.8,72.3,29.81,ENE,57,0.0,0.0,89,0.00,,,0.76,Wunderground v.1.15,2013-07-23 23:34:00,
2013-07-23 19:40:00,75.8,72.3,29.81,ENE,57,0.0,0.0,89,0.00,,,0.76,Wunderground v.1.15,2013-07-23 23:40:00,
2013-07-23 19:45:00,75.6,72.5,29.81,ENE,57,0.0,1.0,90,0.00,,,0.76,Wunderground v.1.15,2013-07-23 23:45:00,
2013-07-23 19:50:00,75.3,72.2,29.81,ENE,57,0.0,0.0,90,0.00,,,0.76,Wunderground v.1.15,2013-07-23 23:50:00,
2013-07-23 19:55:00,75.3,72.2,29.81,ENE,57,0.0,1.0,90,0.00,,,0.76,Wunderground v.1.15,2013-07-23 23:55:00,
2013-07-23 20:00:00,75.1,72.0,29.81,ENE,57,0.0,0.0,90,0.00,,,0.76,Wunderground v.1.15,2013-07-24 00:00:00,
2013-07-23 20:05:00,75.1,72.0,29.81,ENE,57,0.0,0.0,90,0.00,,,0.76,Wunderground v.1.15,2013-07-24 00:05:00,
2013-07-23 20:11:00,74.9,71.8,29.81,ENE,57,0.0,0.0,90,0.00,,,0.76,Wunderground v.1.15,2013-07-24 00:11:00,
2013-07-23 20:16:00,74.7,71.6,29.81,ENE,57,0.0,0.0,90,0.00,,,0.76,Wunderground v.1.15,2013-07-24 00:16:00,
2013-07-23 20:21:00,74.7,71.9,29.81,ENE,57,0.0,0.0,91,0.00,,,0.76,Wunderground v.1.15,2013-07-24 00:21:00,
2013-07-23 20:26:00,74.6,71.8,29.81,ENE,57,0.0,1.0,91,0.00,,,0.76,Wunderground v.1.15,2013-07-24 00:26:00,
2013-07-23 20:31:00,74.6,71.8,29.81,ENE,57,0.0,0.0,91,0.00,,,0.76,Wunderground v.1.15,2013-07-24 00:31:00,
2013-07-23 20:36:00,74.4,71.9,29.80,ENE,57,0.0,1.0,92,0.00,,,0.76,Wunderground v.1.15,2013-07-24 00:36:00,
2013-07-23 20:41:00,74.2,71.7,29.80,ENE,57,0.0,0.0,92,0.00,,,0.76,Wunderground v.1.15,2013-07-24 00:41:00,
2013-07-23 20:46:00,74.2,71.7,29.81,ENE,57,0.0,3.0,92,0.00,,,0.76,Wunderground v.1.15,2013-07-24 00:46:00,
2013-07-23 20:51:00,74.0,71.2,29.81,ENE,57,0.0,2.0,91,0.00,,,0.76,Wunderground v.1.15,2013-07-24 00:51:00,
2013-07-23 20:56:00,73.9,71.1,29.81,ENE,57,0.0,2.0,91,0.00,,,0.76,Wunderground v.1.15,2013-07-24 00:56:00,
2013-07-23 21:02:00,73.7,70.3,29.81,ENE,57,0.0,1.0,89,0.00,,,0.76,Wunderground v.1.15,2013-07-24 01:02:00,
2013-07-23 21:07:00,73.7,70.3,29.81,ENE,57,2.0,3.0,89,0.00,,,0.76,Wunderground v.1.15,2013-07-24 01:07:00,
2013-07-23 21:12:00,73.5,69.4,29.81,ENE,57,0.0,1.0,87,0.00,,,0.76,Wunderground v.1.15,2013-07-24 01:12:00,
2013-07-23 21:17:00,73.3,69.2,29.82,ENE,57,0.0,1.0,87,0.00,,,0.76,Wunderground v.1.15,2013-07-24 01:17:00,
2013-07-23 21:22:00,73.2,69.4,29.82,ENE,57,0.0,0.0,88,0.00,,,0.76,Wunderground v.1.15,2013-07-24 01:22:00,
2013-07-23 21:28:00,73.0,69.2,29.82,ENE,57,0.0,0.0,88,0.00,,,0.76,Wunderground v.1.15,2013-07-24 01:28:00,
2013-07-23 21:33:00,72.8,69.0,29.83,ENE,57,0.0,1.0,88,0.00,,,0.76,Wunderground v.1.15,2013-07-24 01:33:00,
2013-07-23 21:38:00,72.7,68.9,29.83,ENE,57,0.0,2.0,88,0.00,,,0.76,Wunderground v.1.15,2013-07-24 01:38:00,
2013-07-23 21:43:00,72.5,69.1,29.83,ENE,57,3.0,3.0,89,0.00,,,0.76,Wunderground v.1.15,2013-07-24 01:43:00,
2013-07-23 21:48:00,72.5,69.4,29.83,ENE,57,0.0,3.0,90,0.00,,,0.76,Wunderground v.1.15,2013-07-24 01:48:00,
2013-07-23 21:53:00,72.5,69.4,29.83,ENE,57,3.0,3.0,90,0.00,,,0.76,Wunderground v.1.15,2013-07-24 01:53:00,
2013-07-23 21:58:00,72.5,69.7,29.83,ENE,57,0.0,3.0,91,0.00,,,0.76,Wunderground v.1.15,2013-07-24 01:58:00,
2013-07-23 22:03:00,72.3,69.8,29.83,ENE,57,2.0,2.0,92,0.00,,,0.76,Wunderground v.1.15,2013-07-24 02:03:00,
2013-07-23 22:08:00,72.1,69.6,29.83,ENE,57,0.0,4.0,92,0.00,,,0.76,Wunderground v.1.15,2013-07-24 02:08:00,
2013-07-23 22:13:00,72.1,69.6,29.83,ENE,57,0.0,0.0,92,0.00,,,0.76,Wunderground v.1.15,2013-07-24 02:13:00,
2013-07-23 22:18:00,72.0,69.5,29.83,ENE,57,0.0,1.0,92,0.00,,,0.76,Wunderground v.1.15,2013-07-24 02:18:00,
2013-07-23 22:24:00,71.8,69.3,29.83,ENE,57,0.0,0.0,92,0.00,,,0.76,Wunderground v.1.15,2013-07-24 02:24:00,
2013-07-23 22:29:00,71.8,69.0,29.83,ENE,57,0.0,1.0,91,0.00,,,0.76,Wunderground v.1.15,2013-07-24 02:29:00,
2013-07-23 22:34:00,72.0,68.9,29.84,ENE,57,0.0,0.0,90,0.00,,,0.76,Wunderground v.1.15,2013-07-24 02:34:00,
2013-07-23 22:39:00,72.0,68.9,29.84,ENE,57,2.0,4.0,90,0.00,,,0.76,Wunderground v.1.15,2013-07-24 02:39:00,
2013-07-23 22:44:00,72.0,68.6,29.84,ENE,57,0.0,0.0,89,0.00,,,0.76,Wunderground v.1.15,2013-07-24 02:44:00,
2013-07-23 22:50:00,72.0,68.9,29.83,ENE,57,0.0,0.0,90,0.00,,,0.76,Wunderground v.1.15,2013-07-24 02:50:00,
2013-07-23 22:55:00,71.8,68.7,29.83,ENE,57,0.0,0.0,90,0.00,,,0.76,Wunderground v.1.15,2013-07-24 02:55:00,
2013-07-23 23:00:00,71.8,68.7,29.83,ENE,57,2.0,3.0,90,0.00,,,0.76,Wunderground v.1.15,2013-07-24 03:00:00,
2013-07-23 23:05:00,71.6,68.5,29.85,ENE,57,2.0,3.0,90,0.00,,,0.76,Wunderground v.1.15,2013-07-24 03:05:00,
2013-07-23 23:10:00,71.5,68.4,29.85,ENE,57,0.0,1.0,90,0.00,,,0.76,Wunderground v.1.15,2013-07-24 03:10:00,
2013-07-23 23:15:00,71.5,68.4,29.85,ENE,57,0.0,1.0,90,0.00,,,0.76,Wunderground v.1.15,2013-07-24 03:15:00,
2013-07-23 23:20:00,71.5,68.4,29.84,ENE,57,0.0,1.0,90,0.00,,,0.76,Wunderground v.1.15,2013-07-24 03:20:00,
2013-07-23 23:25:00,71.5,68.4,29.84,ENE,57,0.0,1.0,90,0.00,,,0.76,Wunderground v.1.15,2013-07-24 03:25:00,
2013-07-23 23:31:00,71.3,68.2,29.84,ENE,57,0.0,0.0,90,0.00,,,0.76,Wunderground v.1.15,2013-07-24 03:31:00,
2013-07-23 23:36:00,71.1,68.0,29.85,ENE,57,0.0,1.0,90,0.00,,,0.76,Wunderground v.1.15,2013-07-24 03:36:00,
2013-07-23 23:41:00,70.9,67.8,29.85,ENE,57,0.0,0.0,90,0.00,,,0.76,Wunderground v.1.15,2013-07-24 03:41:00,
2013-07-23 23:46:00,70.9,67.8,29.85,ENE,57,0.0,3.0,90,0.00,,,0.76,Wunderground v.1.15,2013-07-24 03:46:00,
2013-07-23 23:51:00,70.8,68.0,29.86,ENE,57,0.0,1.0,91,0.00,,,0.76,Wunderground v.1.15,2013-07-24 03:51:00,
2013-07-23 23:56:00,70.8,68.0,29.86,NE,56,1.0,4.0,91,0.00,,,0.76,Wunderground v.1.15,2013-07-24 03:56:00,